DW2217 Weather Reports


time (UTC)temp
C
wind
direction
speed
KPH
gust
KPH
rain 1hr
cm
rain 24hr
cm
rain mn
cm
humidity
%
barometer
mb
20260904123855 17 37 0.0 0.0 0.00 0.00 0.00 98 1009.8
20260904123350 16 37 0.0 3.2 0.00 0.00 0.00 98 1009.8
20260904122845 16 51 1.6 3.2 0.00 0.00 0.00 98 1009.7
20260904122344 16 107 1.6 3.2 0.00 0.00 0.00 98 1009.7
20260904121839 16 88 0.0 0.0 0.00 0.00 0.00 98 1010.0
20260904121336 16 22 0.0 3.2 0.00 0.00 0.00 98 1009.8
20260904120832 16 18 0.0 0.0 0.00 0.00 0.00 98 1009.8
20260904120327 16 16 0.0 3.2 0.00 0.00 0.00 98 1009.8
20260904115822 16 333 0.0 3.2 0.00 0.00 0.00 98 1009.8
20260904115318 16 340 0.0 0.0 0.00 0.00 0.00 98 1009.7
20260904114818 16 340 3.2 3.2 0.00 0.00 0.00 98 1009.9
20260904114312 16 340 0.0 0.0 0.00 0.00 0.00 98 1009.7
20260904113808 16 314 3.2 3.2 0.00 0.00 0.00 98 1009.5
20260904113307 16 3 3.2 3.2 0.00 0.00 0.00 98 1009.7
20260904112801 16 13 1.6 3.2 0.00 0.00 0.00 98 1009.5
20260904112257 16 18 1.6 3.2 0.00 0.00 0.00 98 1009.8
20260904111753 16 21 0.0 3.2 0.00 0.00 0.00 98 1009.7
20260904111248 16 21 0.0 3.2 0.00 0.00 0.00 98 1009.7
20260904110744 16 19 3.2 3.2 0.00 0.00 0.00 98 1009.6
20260904110243 16 30 3.2 3.2 0.00 0.00 0.00 98 1009.7
20260904105738 16 33 0.0 3.2 0.00 0.00 0.00 98 1009.8
20260904105233 16 38 0.0 0.0 0.00 0.00 0.00 98 1009.6
20260904104728 16 37 0.0 3.2 0.00 0.00 0.00 98 1009.7
20260904104223 16 38 0.0 0.0 0.00 0.00 0.00 98 1009.5
20260904103721 16 37 0.0 3.2 0.00 0.00 0.00 98 1009.4
20260904103215 16 37 1.6 3.2 0.00 0.00 0.00 98 1009.6
20260904102711 16 37 1.6 3.2 0.00 0.00 0.00 98 1009.5
20260904102206 16 46 1.6 3.2 0.00 0.00 0.00 98 1009.2
20260904101703 16 50 3.2 3.2 0.00 0.00 0.00 98 1009.3
20260904101158 16 70 0.0 0.0 0.00 0.00 0.00 98 1009.2
20260904100654 16 70 0.0 0.0 0.00 0.00 0.00 98 1009.3
20260904100149 16 70 0.0 0.0 0.00 0.00 0.00 98 1009.2
20260904095648 16 71 0.0 0.0 0.00 0.00 0.00 98 1009.4
20260904095143 16 71 0.0 0.0 0.00 0.00 0.00 98 1009.2
20260904094638 16 26 1.6 3.2 0.00 0.00 0.00 98 1009.6
20260904094133 16 11 0.0 3.2 0.00 0.00 0.00 98 1009.5
20260904093630 16 353 3.2 3.2 0.00 0.00 0.00 98 1009.5
20260904093129 16 299 3.2 3.2 0.00 0.00 0.00 98 1009.6
20260904092626 16 276 4.8 4.8 0.00 0.00 0.00 98 1009.3
20260904092122 16 292 4.8 4.8 0.00 0.00 0.00 98 1009.3
20260904091618 16 312 3.2 4.8 0.00 0.00 0.00 98 1009.2
20260904091117 16 275 4.8 4.8 0.00 0.00 0.00 98 1009.2
20260904090612 16 300 3.2 4.8 0.00 0.00 0.00 98 1009.2
20260904090108 16 318 3.2 3.2 0.00 0.00 0.00 98 1009.4
20260904085603 16 311 3.2 3.2 0.00 0.00 0.00 98 1009.2
20260904085102 16 289 3.2 4.8 0.00 0.00 0.00 98 1009.3
20260904084558 16 269 6.4 8.0 0.00 0.00 0.00 98 1009.2
20260904084054 16 293 0.0 3.2 0.00 0.00 0.00 98 1009.3
20260904083550 16 294 4.8 4.8 0.00 0.00 0.00 98 1009.4
20260904083046 16 297 3.2 4.8 0.00 0.00 0.00 98 1009.4
20260904082541 16 271 0.0 0.0 0.00 0.00 0.00 98 1009.3
20260904082036 16 270 1.6 3.2 0.00 0.00 0.00 98 1009.3
20260904081532 16 287 3.2 4.8 0.00 0.00 0.00 98 1009.3
20260904081027 16 308 3.2 4.8 0.00 0.00 0.00 98 1009.5
20260904080522 16 285 4.8 4.8 0.00 0.00 0.00 98 1009.3
20260904080019 16 284 4.8 4.8 0.00 0.00 0.00 98 1009.3
20260904075514 16 334 3.2 3.2 0.00 0.00 0.00 98 1009.4
20260904075009 16 337 0.0 0.0 0.00 0.00 0.00 98 1009.4
20260904074503 16 337 0.0 0.0 0.00 0.00 0.00 98 1009.4
20260904073958 16 337 0.0 0.0 0.00 0.00 0.00 98 1009.5
20260904073454 16 337 0.0 0.0 0.00 0.00 0.00 98 1009.4
20260904072949 16 337 0.0 0.0 0.00 0.00 0.00 98 1009.5
20260904072445 16 337 0.0 0.0 0.00 0.00 0.00 98 1009.8
20260904071944 16 337 0.0 0.0 0.00 0.00 0.00 98 1009.8
20260904071440 16 337 0.0 0.0 0.00 0.00 0.00 98 1009.8
20260904070935 16 337 0.0 3.2 0.00 0.00 0.00 98 1009.9
20260904070434 16 337 1.6 3.2 0.00 0.00 0.00 98 1009.7
20260904065934 16 337 0.0 0.0 0.00 0.00 0.00 98 1009.8
20260904065430 16 337 0.0 0.0 0.00 0.00 0.00 98 1009.8
20260904064925 16 337 0.0 3.2 0.00 0.00 0.00 98 1009.6
20260904064421 16 337 0.0 0.0 0.00 0.00 0.00 98 1009.8
20260904063916 16 337 0.0 0.0 0.00 0.00 0.00 98 1009.7
20260904063413 16 337 0.0 0.0 0.00 0.00 0.00 98 1009.8
20260904062907 16 337 0.0 0.0 0.00 0.00 0.00 98 1010.0
20260904062403 16 337 0.0 0.0 0.00 0.00 0.00 98 1010.0
20260904061859 16 337 0.0 3.2 0.00 0.00 0.00 98 1010.3
20260904061355 16 336 0.0 0.0 0.00 0.00 0.00 98 1010.2
20260904060851 16 337 0.0 0.0 0.00 0.00 0.00 98 1010.2
20260904060347 16 336 0.0 0.0 0.00 0.00 0.00 98 1010.2
20260904055842 16 336 0.0 0.0 0.00 0.00 0.00 98 1010.1
20260904055337 16 336 0.0 0.0 0.00 0.00 0.00 98 1010.4
20260904054832 16 336 3.2 3.2 0.00 0.00 0.00 98 1010.5
20260904054328 16 336 0.0 0.0 0.00 0.00 0.00 98 1010.4
20260904053824 16 335 0.0 0.0 0.00 0.00 0.00 98 1010.9
20260904053323 16 335 0.0 3.2 0.00 0.00 0.00 98 1010.8
20260904052819 16 335 0.0 3.2 0.00 0.00 0.00 98 1010.8
20260904052316 16 339 0.0 3.2 0.00 0.00 0.00 98 1010.9
20260904051812 16 338 3.2 3.2 0.00 0.00 0.00 98 1011.0
20260904051307 16 339 3.2 3.2 0.00 0.00 0.00 98 1011.0
20260904050802 16 339 1.6 3.2 0.00 0.00 0.00 98 1011.0
20260904050258 16 347 3.2 3.2 0.00 0.00 0.00 98 1011.0
20260904045753 16 346 1.6 3.2 0.00 0.00 0.00 98 1011.1
20260904045247 16 343 3.2 3.2 0.00 0.00 0.00 98 1010.9
20260904044742 16 10 0.0 0.0 0.00 0.00 0.00 98 1011.2
20260904044239 16 9 3.2 3.2 0.00 0.00 0.00 98 1011.1
20260904043735 16 13 1.6 3.2 0.00 0.00 0.00 98 1010.9
20260904043231 16 15 0.0 0.0 0.00 0.00 0.00 98 1011.1
20260904042726 16 15 0.0 0.0 0.00 0.00 0.00 98 1010.8
20260904042222 16 15 0.0 0.0 0.00 0.00 0.00 98 1011.1
20260904041721 16 15 0.0 0.0 0.00 0.00 0.00 98 1011.2
20260904041218 16 12 3.2 3.2 0.00 0.00 0.00 98 1011.1
20260904040714 16 17 0.0 0.0 0.00 0.00 0.00 98 1011.2
20260904040209 16 17 0.0 3.2 0.00 0.00 0.00 98 1011.3
20260904035705 16 16 0.0 0.0 0.00 0.61 0.61 98 1011.3
20260904035200 16 15 0.0 3.2 0.00 0.61 0.61 98 1011.3
20260904034659 16 27 1.6 3.2 0.00 0.61 0.61 98 1011.4
20260904034155 16 24 3.2 3.2 0.00 0.61 0.61 98 1011.5
20260904033651 16 30 0.0 3.2 0.00 0.61 0.61 98 1011.4
20260904033147 16 27 1.6 3.2 0.00 0.61 0.61 98 1011.5
20260904032643 16 30 0.0 0.0 0.00 0.61 0.61 98 1011.6
20260904032141 16 26 3.2 3.2 0.00 0.61 0.61 98 1011.7
20260904031636 16 59 0.0 0.0 0.00 0.61 0.61 98 1011.6
20260904031132 16 59 0.0 0.0 0.00 0.61 0.61 98 1011.4
20260904030627 16 60 0.0 3.2 0.00 0.61 0.61 98 1011.3
20260904030122 16 38 0.0 0.0 0.00 0.61 0.61 98 1011.6
20260904025618 16 38 0.0 3.2 0.00 0.61 0.61 98 1011.5
20260904025113 16 38 0.0 0.0 0.00 0.61 0.61 98 1011.7
20260904024608 16 37 1.6 3.2 0.00 0.61 0.61 98 1011.7
20260904024104 16 38 0.0 0.0 0.00 0.61 0.61 98 1011.6
20260904023559 16 38 0.0 3.2 0.00 0.61 0.61 98 1011.5
20260904023055 16 38 0.0 3.2 0.00 0.61 0.61 98 1011.7
20260904022550 16 38 1.6 3.2 0.00 0.61 0.61 98 1011.8
20260904022047 16 39 0.0 3.2 0.00 0.61 0.61 98 1011.5
20260904021542 16 39 0.0 0.0 0.00 0.61 0.61 98 1011.6
20260904021037 16 39 0.0 0.0 0.00 0.61 0.61 98 1011.9
20260904020532 16 39 0.0 0.0 0.00 0.61 0.61 98 1012.1
20260904020027 16 39 0.0 0.0 0.00 0.61 0.61 98 1012.1
20260904015521 16 38 0.0 0.0 0.00 0.61 0.61 98 1012.2
20260904015020 16 38 0.0 0.0 0.00 0.61 0.61 98 1012.3
20260904014515 16 37 1.6 3.2 0.00 0.61 0.61 98 1012.3
20260904014010 16 37 0.0 3.2 0.00 0.61 0.61 98 1012.4
20260904013507 16 37 0.0 0.0 0.00 0.61 0.61 98 1012.3
20260904013003 16 36 1.6 3.2 0.00 0.61 0.61 98 1012.5
20260904012502 16 51 3.2 3.2 0.18 0.61 0.61 98 1012.3
20260904011956 16 65 0.0 0.0 0.00 0.58 0.58 98 1012.3
20260904011451 16 104 0.0 0.0 0.00 0.58 0.58 98 1012.3
20260904010946 16 105 0.0 3.2 0.00 0.58 0.58 98 1012.3
20260904010443 16 105 3.2 3.2 0.00 0.58 0.58 98 1012.4
20260904005938 17 70 0.0 0.0 0.00 0.58 0.58 98 1012.0
20260904005434 17 70 0.0 0.0 0.00 0.58 0.58 98 1012.5
20260904004933 17 70 0.0 3.2 0.00 0.58 0.58 98 1012.4
20260904004430 17 70 0.0 3.2 0.00 0.58 0.58 98 1012.2
20260904003930 17 73 0.0 3.2 0.00 0.58 0.58 98 1012.0
20260904003426 17 73 0.0 0.0 0.00 0.58 0.58 98 1011.9
20260904002921 17 73 0.0 0.0 0.00 0.58 0.58 98 1012.1
20260904002417 17 72 0.0 0.0 0.00 0.58 0.58 98 1012.2
20260904001916 17 73 0.0 3.2 0.00 0.58 0.58 98 1012.2
20260904001412 17 72 0.0 0.0 0.00 0.58 0.58 98 1012.1
20260904000911 17 72 0.0 0.0 0.00 0.58 0.58 98 1012.3
20260904000406 17 72 0.0 0.0 0.00 0.58 0.58 98 1012.3
20260903235901 17 80 0.0 0.0 0.00 0.58 0.58 98 1012.3
20260903235357 17 65 0.0 0.0 0.00 0.58 0.58 98 1012.2
20260903234856 17 66 1.6 3.2 0.00 0.58 0.58 98 1012.0
20260903234352 17 66 0.0 0.0 0.00 0.58 0.58 98 1012.2
20260903233848 17 65 0.0 0.0 0.00 0.58 0.58 98 1012.0
20260903233344 17 65 0.0 0.0 0.00 0.58 0.58 98 1012.2
20260903232843 17 65 0.0 0.0 0.00 0.58 0.58 98 1012.0
20260903232339 17 65 0.0 0.0 0.00 0.58 0.58 98 1012.0
20260903231838 17 65 0.0 0.0 0.00 0.58 0.58 98 1012.1
20260903231334 17 65 0.0 0.0 0.00 0.58 0.58 98 1011.9
20260903230829 17 65 0.0 0.0 0.00 0.58 0.58 98 1012.3
20260903230324 17 65 0.0 0.0 0.00 0.58 0.58 98 1012.2
20260903225820 17 65 0.0 0.0 0.00 0.58 0.58 98 1012.2
20260903225316 17 65 0.0 0.0 0.00 0.58 0.58 98 1012.2
20260903224812 17 65 0.0 0.0 0.00 0.58 0.58 98 1012.0
20260903224308 17 65 0.0 0.0 0.00 0.58 0.58 98 1012.3
20260903223804 17 65 0.0 0.0 0.00 0.58 0.58 98 1012.3
20260903223302 17 65 0.0 0.0 0.00 0.58 0.58 98 1012.3
20260903222757 17 65 0.0 0.0 0.00 0.58 0.58 98 1012.3
20260903222256 17 65 0.0 0.0 0.00 0.58 0.58 98 1012.5
20260903221751 17 65 0.0 0.0 0.00 0.58 0.58 98 1012.3
20260903221249 17 65 0.0 0.0 0.00 0.58 0.58 98 1012.1
20260903220748 17 65 0.0 0.0 0.00 0.58 0.58 98 1012.3
20260903220243 17 65 0.0 0.0 0.00 0.58 0.58 98 1012.4
20260903215736 17 65 0.0 0.0 0.00 0.58 0.58 98 1012.2
20260903215232 17 65 0.0 0.0 0.00 0.58 0.58 98 1012.3
20260903214730 17 65 0.0 0.0 0.00 0.58 0.58 98 1012.4
20260903214226 17 65 0.0 0.0 0.00 0.58 0.58 98 1012.2
20260903213720 17 65 0.0 0.0 0.00 0.58 0.58 98 1012.2
20260903213216 17 65 0.0 0.0 0.00 0.58 0.58 98 1012.6
20260903212712 17 65 0.0 0.0 0.00 0.58 0.58 98 1012.4
20260903212208 17 65 0.0 0.0 0.00 0.58 0.58 98 1012.2
20260903211701 17 66 0.0 0.0 0.00 0.58 0.58 98 1012.3
20260903211158 17 65 0.0 0.0 0.00 0.58 0.58 98 1012.3
20260903210654 17 66 0.0 0.0 0.00 0.58 0.58 98 1012.2
20260903210150 17 65 0.0 0.0 0.00 0.58 0.58 98 1012.1
20260903205649 17 66 0.0 0.0 0.00 0.58 0.58 98 1012.3
20260903205148 17 65 0.0 0.0 0.00 0.58 0.58 98 1012.3
20260903204644 17 66 0.0 0.0 0.00 0.58 0.58 98 1012.1
20260903204140 17 66 0.0 0.0 0.00 0.58 0.58 98 1012.4
20260903203635 17 66 0.0 0.0 0.00 0.58 0.58 98 1012.4
20260903203130 17 66 0.0 0.0 0.00 0.58 0.58 98 1012.4
20260903202625 17 66 0.0 0.0 0.00 0.58 0.58 98 1012.4
20260903202120 17 66 0.0 0.0 0.00 0.58 0.58 98 1012.3
20260903201614 17 66 0.0 0.0 0.00 0.58 0.58 98 1012.4
20260903201114 17 66 0.0 0.0 0.00 0.58 0.58 98 1012.4
20260903200609 17 66 0.0 0.0 0.00 0.58 0.58 98 1012.5
20260903200104 17 66 0.0 0.0 0.00 0.58 0.58 98 1012.5
20260903195600 17 66 1.6 3.2 0.00 0.58 0.58 98 1012.7
20260903195055 17 65 1.6 3.2 0.00 0.58 0.58 98 1012.7
20260903194545 17 65 0.0 3.2 0.00 0.58 0.58 98 1012.7
20260903194040 17 65 0.0 0.0 0.00 0.58 0.58 98 1012.7
20260903193536 17 65 0.0 0.0 0.00 0.58 0.58 98 1012.8
20260903193031 17 65 0.0 3.2 0.00 0.58 0.58 98 1013.0
20260903192529 17 65 0.0 3.2 0.00 0.58 0.58 98 1012.9
20260903192028 17 65 0.0 0.0 0.00 0.58 0.58 98 1013.1
20260903191525 17 65 0.0 0.0 0.00 0.58 0.58 98 1013.0
20260903191025 17 65 0.0 0.0 0.00 0.58 0.58 98 1013.1
20260903190519 16 65 0.0 0.0 0.00 0.58 0.58 98 1013.1
20260903190018 16 65 0.0 0.0 0.00 0.58 0.58 98 1013.2
20260903185514 16 65 0.0 0.0 0.00 0.58 0.58 98 1013.2
20260903185009 16 65 0.0 0.0 0.00 0.58 0.58 98 1013.4
20260903184506 16 65 0.0 0.0 0.00 0.58 0.58 98 1013.3
20260903184006 16 65 0.0 0.0 0.00 0.58 0.58 98 1013.3
20260903183459 16 65 0.0 0.0 0.00 0.58 0.58 98 1013.4
20260903183000 16 65 0.0 0.0 0.00 0.58 0.58 98 1013.7
20260903182458 16 65 0.0 0.0 0.00 0.58 0.58 98 1013.6
20260903181955 16 65 0.0 0.0 0.00 0.58 0.58 98 1013.8
20260903181453 16 65 0.0 0.0 0.00 0.58 0.58 98 1013.6
20260903180947 16 65 0.0 0.0 0.00 0.58 0.58 98 1013.8
20260903180443 16 65 0.0 0.0 0.00 0.58 0.58 98 1013.7
20260903175942 16 65 0.0 0.0 0.00 0.58 0.58 98 1013.7
20260903175437 16 108 0.0 0.0 0.00 0.58 0.58 98 1013.4
20260903174936 16 108 0.0 0.0 0.00 0.58 0.58 98 1013.5
20260903174431 16 108 0.0 0.0 0.00 0.58 0.58 98 1013.7
20260903173931 16 108 0.0 3.2 0.00 0.58 0.58 98 1013.7
20260903173426 16 108 0.0 3.2 0.00 0.58 0.58 98 1013.6
20260903172921 16 108 0.0 3.2 0.00 0.58 0.58 98 1013.4
20260903172416 16 109 0.0 0.0 0.00 0.58 0.58 98 1013.5
20260903171912 16 109 1.6 3.2 0.00 0.58 0.58 98 1013.6
20260903171407 16 109 0.0 0.0 0.00 0.58 0.58 98 1013.7
20260903170907 16 109 0.0 0.0 0.00 0.58 0.58 98 1013.6
20260903170402 16 84 0.0 3.2 0.00 0.58 0.58 98 1013.6
20260903165901 16 85 0.0 3.2 0.00 0.58 0.58 98 1013.6
20260903165355 16 86 3.2 3.2 0.00 0.58 0.58 98 1013.6
20260903164849 16 85 1.6 3.2 0.00 0.58 0.58 98 1013.7
20260903164345 16 117 0.0 0.0 0.00 0.58 0.58 98 1013.9
20260903163844 16 117 0.0 0.0 0.00 0.58 0.58 98 1013.8
20260903163341 16 117 0.0 3.2 0.00 0.58 0.58 98 1013.9
20260903162836 16 117 0.0 3.2 0.00 0.58 0.58 98 1013.9
20260903162333 16 110 0.0 3.2 0.00 0.58 0.58 98 1013.9
20260903161828 16 110 0.0 3.2 0.00 0.58 0.58 98 1014.1
20260903161324 16 110 0.0 0.0 0.00 0.58 0.58 98 1014.1
20260903160819 16 110 0.0 3.2 0.00 0.58 0.58 98 1014.3
20260903160318 16 110 0.0 0.0 0.00 0.58 0.58 98 1014.3
20260903155817 16 110 0.0 3.2 0.00 0.58 0.58 98 1014.4
20260903155312 16 110 0.0 3.2 0.00 0.58 0.58 98 1014.5
20260903154808 16 109 0.0 0.0 0.00 0.58 0.58 98 1014.6
20260903154304 16 109 0.0 0.0 0.00 0.58 0.58 98 1014.7
20260903153759 16 109 0.0 3.2 0.00 0.58 0.58 98 1014.7
20260903153255 16 109 0.0 0.0 0.00 0.58 0.58 98 1014.9
20260903152751 16 109 0.0 0.0 0.00 0.58 0.58 98 1014.7
20260903152246 16 109 1.6 3.2 0.00 0.58 0.58 98 1015.1
20260903151740 16 109 3.2 3.2 0.00 0.58 0.58 98 1015.0
20260903151236 16 109 1.6 3.2 0.00 0.58 0.58 98 1015.0
20260903150731 16 109 0.0 0.0 0.00 0.58 0.58 98 1015.1
20260903150225 16 109 0.0 3.2 0.00 0.58 0.58 98 1015.1
20260903145725 16 109 0.0 0.0 0.00 0.58 0.58 98 1015.0
20260903145221 16 109 1.6 3.2 0.00 0.58 0.58 98 1014.8
20260903144719 16 109 0.0 3.2 0.00 0.58 0.58 98 1015.1
20260903144216 15 109 0.0 0.0 0.00 0.58 0.58 98 1015.0
20260903143711 15 109 0.0 0.0 0.00 0.58 0.58 98 1015.1
20260903143207 15 109 0.0 3.2 0.00 0.58 0.58 98 1015.0
20260903142702 15 109 0.0 0.0 0.00 0.58 0.58 98 1015.1
20260903142159 15 109 0.0 0.0 0.00 0.58 0.58 98 1015.4
20260903141654 15 109 0.0 3.2 0.00 0.58 0.58 98 1015.1
20260903141148 15 109 0.0 0.0 0.13 0.58 0.58 98 1015.2
20260903140645 15 109 0.0 3.2 0.13 0.58 0.58 98 1015.1
20260903140140 15 109 0.0 0.0 0.00 0.56 0.56 98 1015.3
20260903135636 15 109 1.6 3.2 0.00 0.56 0.56 98 1015.2
20260903135130 15 109 0.0 0.0 0.00 0.56 0.56 98 1015.3
20260903134629 15 109 0.0 0.0 0.00 0.56 0.56 98 1015.4
20260903134125 15 109 0.0 0.0 0.00 0.56 0.56 98 1015.6
20260903133623 15 109 0.0 0.0 0.00 0.56 0.56 98 1015.5
20260903133119 15 109 0.0 0.0 0.00 0.56 0.56 98 1015.3
20260903132614 15 109 0.0 0.0 0.18 0.56 0.56 98 1015.6
20260903132113 15 110 0.0 0.0 0.00 0.53 0.53 98 1015.4
20260903131608 15 110 0.0 0.0 0.00 0.53 0.53 98 1015.4
20260903131107 15 110 0.0 0.0 0.00 0.53 0.53 98 1015.5
20260903130603 15 110 0.0 0.0 0.00 0.53 0.53 98 1015.6
20260903130057 15 110 0.0 0.0 0.00 0.53 0.53 98 1015.7
20260903125555 15 110 0.0 0.0 0.00 0.53 0.53 98 1015.6
20260903125050 15 110 0.0 0.0 0.00 0.53 0.53 98 1015.8
20260903124545 15 105 0.0 0.0 0.00 0.53 0.53 98 1015.8